C/2008 C1 (Chen-Gao)

Epoch 2008 Apr. 4.0 TT = JDT 2454560.5  

T 2008 Apr. 16.85065 TT                                 Nakano

q   1.2623486            (2000.0)            P               Q

z  -0.0000023      Peri.  180.92792     -0.61863393     -0.36369292

 +/-0.0000160      Node   307.78230     +0.72640423     +0.07300145

e   1.0000028      Incl.   61.78470     +0.29938097     -0.92865400

From 709 observations 2008 Feb. 2-May 28, mean residual 0".64.

   (1/a)org.= +0.000039, (1/a)fut.= +0.000503 (+/-0.000016), Q= 6.

Residuals in seconds of arc 

2008/                     080210 048  1.2-  0.4-    080316 A77  1.8-  0.0   

080130 C42 (0.4-  2.7+)   080210 235  0.0   0.3+    080316 A77  0.2+  1.4+  

080131 C42 (2.3+ 10.0+)   080210 945  0.6+  1.3-    080316 A06  1.0-  0.5-  

080201 C42 (3.8+  5.4+)   080210 945  0.4-  0.5-    080316 A06  0.2+  0.5-  

080202 C42 (3.3+  7.2+)   080210 945  0.1+  1.6+    080316 A06  0.4-  0.5-  

080202 C42 (2.3-  5.1+)   080210 945  0.8-  1.6-    080317 900  0.5-  0.0   

080202 C42 (1.2+  9.5-)   080210 J38  1.2+  0.7+    080317 900  0.3-  0.2-  

080202 C42 (6.0+  4.1-)   080210 J38  1.0+  0.0     080317 213  0.6-  0.0   

080202 J87  0.2+  0.2-    080211 A21  0.0   0.2+    080317 213  0.5-  0.5-  

080202 J87  0.2-  0.1-    080211 A21  0.8-  1.0-    080317 213  0.4-  0.4-  

080202 J87  0.6-  0.2-    080211 A21  1.8-  0.6+    080318 J76  0.3-  0.1+  

080202 J87  0.1+  0.0     080211 585 (2.0-  0.7-)   080318 J76  0.1-  0.1-  

080202 J87  0.4-  0.2-    080211 585  0.3-  0.2-    080318 J76  0.4-  0.2-  

080202 B30  0.6-  0.7-    080211 585  0.1-  0.0     080319 A77  0.1-  0.2+  

080202 B30  1.4+  0.8+    080211 585  0.2-  0.7-    080319 A77  0.3-  0.2-  

080202 204  0.3-  0.3+    080211 585  0.4-  0.5-    080319 A77  0.7-  0.2-  

080202 204  0.0   0.3+    080211 585  0.6+  0.4-    080320 585  0.8-  0.4+  

080202 204  0.0   0.3+    080211 585  0.4+  0.2-    080320 585 (3.9-  0.3+) 

080202 114  0.7+  1.5+    080211 J51  0.6+  0.2+    080320 585  0.4-  0.2-  

080202 B03  0.1+  0.1-    080211 J51  0.2-  0.0     080320 585  0.7+  1.8-  

080202 B03  0.2+  0.6+    080211 046  0.1-  0.7-    080320 585  1.6-  0.3-  

080202 B03  0.3-  0.1+    080211 046  0.5+  0.7-    080320 585  1.2+  1.0-  

080202 B03  0.3-  0.2+    080211 J51  0.1+  0.3+    080320 442  0.4-  0.4+  

080202 A21  0.5-  0.0     080211 046  0.3-  0.2-    080321 900 (0.2+  2.3+) 

080202 A21  0.1+  0.0     080211 046  0.1-  0.0     080321 900  0.0   0.3-  

080202 A21  0.1-  0.2-    080211 046  0.0   0.4-    080321 213  0.1+  1.1+  

080202 A21  0.1+  0.1-    080211 046  0.4-  0.2-    080321 213  0.3+  1.7+  

080203 H55  0.2-  0.2-    080211 046  0.6-  0.4-    080321 213  0.3-  0.5-  

080203 H55  0.3-  0.3-    080211 945 (3.9-  1.3+)   080322 349  0.1-  0.4-  

080203 H55  0.0   0.2+    080211 945  0.2-  0.2-    080322 349  0.4+  0.1+  

080203 B30  0.3+  0.2+    080211 945  0.5+  0.8+    080322 C42 (4.5+  5.9+) 

080203 B30  0.5-  0.2+    080212 235  0.1-  0.1-    080322 C42 (3.9+  0.3+) 

080203 B30  1.2-  0.7-    080212 204  0.3-  0.2-    080322 C42 (2.3-  1.3-) 

080203 B30  0.8+  0.2-    080212 204  0.4-  0.2-    080322 C42 (2.1-  3.0-) 

080203 B30  0.9+  0.1-    080213 355  0.2-  0.4+    080322 J79  0.5+  0.5+  

080203 H45  0.0   1.8+    080213 355  0.3+  0.6+    080322 J79  1.0+  0.3-  

080203 H45  0.2-  0.5-    080213 355  0.1+  0.9+    080322 J79  0.0   0.6-  

080203 H45  0.1-  0.3-    080213 355  0.6+  0.5+    080323 C42  0.5-  0.6-  

080203 H45  0.1-  0.2-    080213 J34  0.6-  0.8-    080323 939  0.3+  0.7+  

080203 H45  0.1-  0.1-    080213 J34  0.0   0.1+    080323 939  0.1+  0.2+  

080203 H45  0.0   0.3+    080215 J46  0.2+  0.4+    080323 939  0.2-  0.1+  

080203 H45  0.6-  0.2-    080215 J46  0.2-  0.2-    080323 J79  0.5-  0.7-  

080203 H45  0.0   0.7-    080215 213  0.1-  0.8-    080323 J79  0.0   0.0   

080203 H45  0.2+  0.5-    080215 213  0.1-  1.0-    080323 J79  0.5+  0.1+  

080203 H45  1.6-  0.2+    080215 213  0.3-  0.9-    080324 750  0.2+  0.3+  

080203 448  0.1-  0.0     080215 J47  0.5+  0.4-    080324 750  0.0   0.3-  

080203 448  0.1-  0.4-    080215 J47  0.4-  0.2-    080324 585 (2.8-  1.0+) 

080203 448  0.0   0.2-    080215 J47  0.1+  0.1+    080324 585 (2.2-  0.2+) 

080203 448 (3.0+  0.4-)   080215 510  0.2-  0.0     080324 585  0.6+  1.4-  

080203 448  1.7-  0.2-    080215 510  0.5-  0.0     080324 585  0.8+  1.2-  

080203 704  0.4+  1.7+    080216 B58  0.4-  0.1+    080324 585  0.6-  0.3+  

080203 704  0.2-  1.1+    080216 B58  0.4-  0.1+    080324 585 (0.3-  2.1-) 

080203 H06  0.1-  0.3+    080216 B58  0.6+  0.5+    080324 585 (0.5-  3.1+) 

080203 H06  0.4-  0.3+    080216 B58  0.2-  0.8+    080324 J79  0.9-  0.1+  

080203 704 (0.3-  2.4+)   080216 B58  0.3-  0.2-    080324 J79  0.2-  0.2+  

080203 704  0.3+  1.1+    080216 B58  0.0   0.0     080324 J79  0.8+  0.8+  

080203 701 (2.1-  2.8+)   080216 B58  0.1+  0.6-    080325 235  0.0   0.2-  

080203 701 (4.3-  1.4-)   080216 A97  0.3+  0.9+    080325 A77  1.5+  0.1-  

080203 704  0.7+  1.1+    080216 B58  0.0   0.1-    080325 A77  0.0   0.8+  

080203 673  0.4-  0.7-    080216 B58  0.5-  0.7-    080325 A77 (0.7+  2.6+) 

080203 701 (2.6+  0.9+)   080216 B58  0.3-  0.2-    080325 B57  0.8-  0.0   

080203 701  1.3+  0.2-    080216 A97  0.8+  0.8+    080326 629  0.7-  0.2+  

080203 673  0.4-  0.8-    080216 B58  0.3-  0.5-    080326 629  0.5-  0.0   

080203 701 (3.5-  0.3-)   080216 B58  0.6-  0.1+    080326 629  0.6-  0.8-  

080203 H06  1.1+  0.4+    080216 B58  0.7-  0.0     080326 J47  0.8-  0.4-  

080203 673  0.6-  0.6-    080216 B58  0.1+  0.0     080326 J47  1.1+  0.6+  

080203 H06  0.3-  0.3-    080216 A97  0.0   1.8-    080326 J47  0.2-  0.2-  

080203 701  0.4-  1.9+    080217 510  0.3+  0.1-    080327 J47  0.2+  0.5+  

080203 673  0.6-  0.2-    080217 510  0.4+  0.5+    080327 J47  0.6-  0.6-  

080203 D70  0.2-  0.1+    080217 D88  0.0   0.5-    080327 J47  0.1+  1.1+  

080203 372  0.9-  0.1-    080217 D88  1.3+  0.1-    080327 J51  1.1+  0.4+  

080203 D70  0.1-  0.4+    080217 349  0.0   0.1+    080327 J51  0.8+  0.3+  

080203 300  0.1-  0.3-    080217 349  0.2-  0.0     080327 J51  0.5+  0.5+  

080203 300 (2.0+  0.1+)   080217 349  0.1+  0.1-    080328 750  0.9+  0.7+  

080203 372  0.5+  0.6+    080217 349  0.1+  0.2-    080328 750  0.3+  0.2+  

080203 300  1.2-  1.9-    080217 510  0.2-  0.6+    080328 C42 (2.0+  3.6-) 

080203 300  0.1+  0.3-    080217 510  0.4-  0.0     080328 C42 (0.5+  2.5+) 

080203 D70  0.2+  0.2+    080219 B58  0.1-  0.2+    080328 C42 (4.1+  3.0-) 

080203 048  0.8+  0.5+    080219 B58  0.4-  0.3-    080328 C42 (4.2+  1.5-) 

080203 048  0.6+  0.2+    080219 B58  0.3-  0.2+    080328 147  1.5-  0.4+  

080203 048  0.1-  0.2-    080219 B58  0.1-  0.4-    080328 147  0.7-  0.5+  

080203 048  0.2-  0.7-    080219 B58  0.2-  0.1+    080328 147  0.7-  0.3+  

080203 048  0.3-  0.6-    080220 629  0.7-  0.1-    080328 147  0.4+  0.5+  

080203 A97  0.2-  0.9+    080220 629  1.9-  0.6-    080329 204  0.5-  0.1-  

080203 A97  0.0   0.3-    080221 300  0.1-  0.9-    080329 J55  0.5-  0.2+  

080203 A97  0.8+  0.9+    080221 300  0.0   0.8-    080329 J55  0.2-  0.2+  

080203 557  0.0   0.0     080221 300  0.6+  0.2-    080329 J55  0.1-  0.1-  

080203 557  0.0   0.0     080221 300  0.8+  0.1-    080329 A97  0.4+  0.0   

080203 557  0.0   0.1-    080222 939  0.4-  0.6+    080329 A06  0.3+  0.5-  

080203 557  0.1+  0.0     080222 939  0.2-  0.5-    080329 A97  0.6+  0.3+  

080203 557  0.0   0.1-    080222 939  0.0   0.1-    080329 A06  0.6-  0.3+  

080203 557  0.0   0.0     080223 A97  0.3+  0.8+    080329 A06  0.8-  0.1+  

080203 A97  0.7+  0.6+    080223 A97  0.4+  1.1+    080329 A97  0.3+  0.3+  

080203 349  0.5-  0.5+    080223 A97  0.8-  1.7+    080329 J47  1.7+  0.9-  

080203 349  1.0-  0.8+    080223 A97 (2.1-  0.3+)   080329 J47  0.4+  1.2+  

080203 349  0.6-  0.9+    080224 D88  0.1-  0.2+    080329 213  0.2-  1.4+  

080203 B42  1.0+  1.0-    080224 D88  0.6+  1.1+    080329 213  0.5-  1.0+  

080203 B42  0.9+  0.7-    080224 D88  0.8+  0.2+    080329 204  0.7-  0.1-  

080203 B42  1.0+  0.6-    080224 C42 (5.3-  3.5-)   080329 A97  0.2+  0.1+  

080203 B42  1.0+  0.4-    080224 C42 (1.3+  3.1-)   080329 J47  0.3+  0.0   

080203 B42  0.3+  0.3-    080224 C42 (2.7+  3.7-)   080329 A97  0.6+  0.6-  

080203 945 (3.1+  5.1-)   080224 233  0.5+  0.5-    080330 J38  0.9+  0.0   

080203 945 (3.1+  2.9-)   080224 A41  0.6+  0.5+    080330 J38  0.8+  0.7-  

080203 945  0.9+  1.5+    080224 233  0.0   0.2+    080330 J38  1.2+  0.4-  

080203 945  0.4+  1.5-    080224 233  0.3-  0.3-    080330 945  0.9+  1.2-  

080203 585  1.2-  0.9+    080224 A97  0.3+  0.6+    080331 C42  1.3+  0.6+  

080203 585  0.1-  0.7+    080224 A41  0.5+  0.7+    080331 C42 (4.6+  2.5+) 

080203 585  0.0   0.9+    080224 A97  0.3+  0.7+    080331 C42 (0.1+  2.2+) 

080203 585  0.4-  0.1-    080224 A97  0.2+  0.5+    080331 C42 (6.4+  5.9+) 

080203 585 (4.4-  0.0 )   080224 A97  0.1+  0.5+    080331 C42 (5.1+  2.2+) 

080204 372  1.3-  0.1+    080224 A41  0.4+  0.8+    080331 C42 (2.2+  6.4+) 

080204 372  0.8-  0.5+    080224 987  0.2-  1.0-    080331 B02  0.2-  1.2+  

080204 372  0.8-  0.1+    080224 987  1.3-  0.5-    080331 152  0.5+  0.8+  

080204 C42 (2.1+  0.8-)   080224 987  0.4-  0.5-    080331 B02  0.2-  0.1+  

080204 C42 (3.3+  0.8-)   080226 B16  1.3-  0.2-    080331 152 (0.5+  2.6+) 

080204 C42 (2.7+  0.5+)   080226 B16  1.0-  0.2-    080331 152  0.7+  0.3+  

080204 C42 (4.5+  0.2+)   080226 106  0.9+  0.1-    080331 B02  0.2-  0.8-  

080204 C42 (4.6+  1.4-)   080226 106  0.1+  0.5-    080331 152  0.4+  0.2+  

080204 C42 (4.6+  0.1+)   080226 106  0.1-  0.2+    080331 152  0.1-  1.6+  

080204 C42 (3.0+  0.1-)   080226 106  0.2-  0.1-    080331 152  1.0-  0.3+  

080204 A77  0.3-  0.3-    080226 106  0.1+  0.5+    080331 B02  0.3+  1.4-  

